FW5349 Weather Reports


time (UTC)temp
F
wind
direction
speed
knots
gust
knots
rain 1hr
in
rain 24hr
in
rain mn
in
humidity
%
barometer
mb
20260505070008 46 254 6.1 11.3 0.00 0.05 0.00 75 1011.2
20260505064504 46 245 3.5 8.7 0.00 0.06 0.00 74 1011.0
20260505063003 47 228 4.3 12.2 0.00 0.06 0.00 74 1010.9
20260505061502 47 252 3.5 9.6 0.00 0.06 0.00 74 1010.8
20260505054559 46 241 3.5 7.8 0.00 0.06 0.00 74 1010.6
20260505053114 47 234 3.5 9.6 0.00 0.06 0.00 73 1010.7
20260505051552 47 240 0.9 8.7 0.00 0.06 0.00 73 1010.4
20260505041548 47 230 0.9 6.1 0.00 0.06 0.00 72 1009.9
20260505040044 48 250 2.6 6.1 0.00 0.06 0.00 72 1009.8
20260505034552 48 248 3.5 11.3 0.00 0.06 0.00 71 1009.7
20260505033046 49 264 7.8 13.9 0.00 0.06 0.00 70 1009.4
20260505031540 49 210 3.5 9.6 0.00 0.06 0.00 70 1008.9
20260505030035 48 270 3.5 12.2 0.00 0.06 0.00 70 1009.0
20260505024533 48 227 4.3 12.2 0.00 0.06 0.06 71 1008.7
20260505023032 47 275 2.6 9.6 0.00 0.06 0.06 73 1008.7
20260505021532 46 260 4.3 7.8 0.01 0.06 0.06 74 1008.5
20260505020029 46 249 1.7 4.3 0.01 0.06 0.06 74 1008.1
20260505014529 46 263 3.5 8.7 0.01 0.06 0.06 73 1008.0
20260505013027 47 267 3.5 8.7 0.01 0.06 0.06 72 1007.9
20260505011544 47 235 2.6 10.4 0.00 0.06 0.06 72 1007.7
20260505010024 47 246 2.6 8.7 0.00 0.06 0.06 72 1007.7
20260505004524 48 225 3.5 7.8 0.00 0.06 0.06 71 1007.4
20260505003023 48 239 1.7 6.1 0.00 0.06 0.06 70 1007.2
20260505001522 48 197 1.7 6.1 0.00 0.06 0.06 69 1007.2
20260505000021 48 237 1.7 7.0 0.00 0.06 0.06 69 1006.9
20260504234518 48 223 4.3 7.8 0.00 0.06 0.06 69 1006.8
20260504233017 48 224 3.5 12.2 0.00 0.06 0.06 70 1006.6
20260504231516 48 213 2.6 9.6 0.00 0.06 0.06 70 1006.7
20260504230015 48 185 1.7 7.0 0.00 0.06 0.06 70 1006.4
20260504224514 49 173 4.3 8.7 0.00 0.07 0.06 69 1006.1
20260504223013 49 181 2.6 8.7 0.00 0.07 0.06 69 1005.9
20260504221511 49 216 2.6 10.4 0.00 0.07 0.06 69 1005.9
20260504220010 50 249 7.0 13.9 0.00 0.07 0.06 68 1006.0
20260504214509 50 201 7.8 17.4 0.00 0.08 0.06 66 1005.7
20260504213007 51 240 3.5 16.5 0.00 0.08 0.06 64 1005.5
20260504211505 53 246 6.1 14.8 0.01 0.08 0.06 60 1005.2
20260504210007 54 205 5.2 15.6 0.01 0.08 0.06 57 1005.3
20260504204502 54 202 4.3 11.3 0.01 0.08 0.06 56 1005.2
20260504203105 56 242 4.3 13.0 0.01 0.08 0.06 51 1005.1
20260504201557 59 195 4.3 10.4 0.00 0.07 0.05 46 1004.7
20260504194603 61 200 11.3 19.1 0.00 0.08 0.05 32 1004.0
20260504193056 61 232 9.6 19.1 0.00 0.08 0.05 32 1004.0
20260504191608 61 243 10.4 19.1 0.00 0.08 0.05 32 1004.0
20260504190053 61 256 11.3 20.0 0.00 0.08 0.05 34 1003.8
20260504184552 61 268 14.8 20.9 0.00 0.09 0.05 32 1003.8
20260504183050 60 258 13.9 24.3 0.00 0.09 0.05 32 1003.9
20260504181554 60 256 13.9 21.7 0.00 0.09 0.05 32 1004.0
20260504180047 59 263 12.2 22.6 0.00 0.09 0.05 33 1003.9
20260504174545 59 248 12.2 26.9 0.00 0.09 0.05 36 1004.0
20260504173043 59 267 13.0 29.5 0.01 0.09 0.05 33 1004.1
20260504171548 58 254 13.0 25.2 0.01 0.09 0.05 34 1004.0
20260504081506 39 266 13.9 25.2 0.00 0.08 0.02 82 996.2